[[{"header":{"parameterUnit":"m.s-1","parameterCategory":1,"la1":30.2991,"la2":30.254,"lo1":-89.0895,"lo2":-89.0444,"dy":0.0017,"dx":0.0017,"nx":28,"ny":28,"refTime":"2024-07-13T09:00:00:Z","depth":0,"parameterNumber":2,"parameterNumberName":"U-component_of_WINDS"},"data":[0,0,0,0,0,0,0,0,0,0,0,0,0,0,0,0,0,0,0,0,0,0,0,0,0,0,0,0,0,0,0,0,0,0,0,0,0,0,0,0,0,0,0,0,0,0,0,0,0,0,0,0,0,0,0,0,0,0,3.6501,3.6503,0,3.662,3.6621,3.6623,3.6564,3.6561,3.6558,3.6555,3.6679,3.6685,3.6691,0,0,0,0,0,0,0,0,0,0,0,0,0,3.6224,3.623,3.6501,3.6503,3.6504,3.662,3.6621,3.6623,3.6565,3.6561,3.6557,3.6554,3.6677,3.6684,3.6692,0,0,0,0,0,0,0,0,0,0,0,0,0,3.6344,3.6231,3.6501,3.6489,3.6489,3.6619,3.6621,3.6623,3.6566,3.6561,3.6556,3.6552,3.6675,3.6684,3.6693,3.6842,0,0,3.6721,3.6725,0,0,0,0,0,0,0,0,3.6337,3.6354,3.6489,3.649,3.649,3.6572,3.6569,3.6697,3.6567,3.6537,3.6555,3.655,3.6647,3.6659,3.6691,3.6848,3.6853,3.6722,3.6727,3.6731,3.6734,0,0,0,0,0,0,0,3.6329,3.6349,3.6548,3.6491,3.6492,3.6478,3.649,3.6593,3.6617,3.6539,3.6535,3.655,3.6647,3.6682,3.6694,3.6855,3.6722,3.673,3.6735,3.6739,3.7137,3.7141,0,0,0,0,0,0,3.6321,3.6342,3.6544,3.6552,3.6401,3.6486,3.65,3.6551,3.6615,3.6621,3.6553,3.6546,3.6669,3.6683,3.6698,3.6874,3.6731,3.674,3.6745,3.7132,3.7138,3.7143,0,0,0,0,0,0,3.6315,3.634,3.654,3.6446,3.647,3.6496,3.6554,3.6556,3.6591,3.6626,3.663,3.6585,3.6666,3.6685,3.6806,3.6878,3.6744,3.6753,3.7126,3.7134,3.714,3.723,0,0,0,0,0,0,3.6308,3.6338,3.6395,3.6448,3.6475,3.6646,3.6558,3.6561,3.6607,3.6599,3.6657,3.6662,3.6664,3.6792,3.6815,3.6888,3.676,3.7119,3.7129,3.7138,3.722,3.7239,3.7256,0,0,0,0,0,3.6298,3.6417,3.6399,3.6423,3.6548,3.665,3.6666,3.6664,3.6613,3.667,3.6692,3.6661,3.6866,3.6805,3.683,3.6907,3.7115,3.7126,3.7137,3.7213,3.7236,3.7255,0,0,0,0,0,0,3.6374,3.6424,3.6404,3.6544,3.6593,3.664,3.6713,3.6689,3.6755,3.6745,3.6741,3.6754,3.6879,3.6905,3.6836,3.7053,3.6983,3.6999,3.7031,3.7053,3.7071,3.7061,3.6767,0,0,0,0,0,3.6407,3.6486,3.6525,3.6645,3.667,3.6687,3.6732,3.6726,3.6777,3.6798,3.6829,3.6881,3.6956,3.7007,3.7079,3.7224,3.7235,3.7289,3.7307,3.7321,3.7335,3.7411,3.7434,3.718,3.718,3.718,0,0,3.6476,3.6513,3.6564,3.6661,3.6698,3.6779,3.6706,3.6795,3.6855,3.6812,3.6927,3.6952,3.7009,3.7141,3.7202,3.7167,3.7408,3.7335,3.7347,3.7353,3.7425,3.7449,3.747,3.7188,3.7186,3.7185,0,0,3.6643,3.668,3.6782,3.682,3.6877,3.6887,3.6911,3.6962,3.6976,3.7091,3.7059,3.713,3.7262,3.7303,3.7341,3.752,3.7492,3.7543,3.7635,3.7708,3.7728,3.7746,3.7807,3.7829,3.7558,3.7558,3.7558,0,3.6722,3.6843,3.6837,3.6928,3.6971,3.6934,3.7036,3.7074,3.7152,3.7182,3.7143,3.7304,3.734,3.748,3.7523,3.7557,3.7583,3.7536,3.7726,3.7743,3.776,3.7818,3.7841,3.7564,3.7563,3.7562,3.7562,0,3.6935,3.7019,3.7094,3.7168,3.722,3.7316,3.7325,3.7377,3.7366,3.738,3.7496,3.7538,3.7616,3.7649,3.7641,3.7787,3.7764,3.7725,3.7654,3.779,3.7844,3.7866,3.7572,3.757,3.7568,3.7567,0,0,3.7154,3.7222,3.7249,3.7281,3.734,3.7404,3.7498,3.7573,3.7617,3.7672,3.7749,3.7859,3.7823,3.7866,3.7861,3.7926,3.8061,3.7879,3.788,3.7909,3.8222,3.8249,3.8275,3.8043,3.8048,3.8051,3.8216,0,3.7323,3.7486,3.7482,3.7634,3.7709,3.7674,3.7755,3.78,3.7815,3.7881,3.7898,3.7975,3.7923,3.7948,3.8011,3.8031,3.8124,3.802,3.8114,3.8117,3.8098,3.8304,3.8333,3.8487,3.8238,3.8241,3.8244,0,3.7542,3.7601,3.7759,3.7803,3.7835,3.7908,3.7974,3.8039,3.8088,3.8094,3.8141,3.8125,3.8219,3.8145,3.8274,3.8203,3.8241,3.8257,3.8263,3.827,3.8188,3.8314,3.8537,3.8559,3.8278,3.8275,3.8273,0,3.7682,3.7802,3.7911,3.7939,3.7995,3.8046,3.8072,3.8116,3.816,3.8218,3.8246,3.8316,3.8353,3.8407,3.841,3.8357,3.8538,3.8466,3.8545,3.8545,3.8583,3.8581,3.8813,3.8612,3.8612,3.8611,3.8611,0,3.7869,3.7967,3.7974,3.8041,3.8148,3.8143,3.8249,3.827,3.8309,3.8379,3.8354,3.8419,3.842,3.8487,3.849,3.8594,3.8612,3.8619,3.8618,3.862,3.8619,3.8644,3.8632,3.8617,3.8616,3.8615,3.8614,0,3.8044,3.8053,3.8169,3.821,3.8223,3.83,3.8335,3.8399,3.841,3.8498,3.8519,3.8538,3.8615,3.8623,3.8714,3.8716,3.884,3.883,3.8823,3.8821,3.8898,3.8889,3.9152,3.9185,3.8966,3.8968,3.8969,0,3.8162,3.8235,3.8284,3.8328,3.8356,3.8428,3.8471,3.8469,3.8516,3.8575,3.863,3.8705,3.8764,3.8889,3.8911,3.8979,3.8968,3.9056,3.8978,3.8977,3.8966,3.8961,3.8967,3.907,3.9073,3.9074,3.9076,0,3.8369,3.8369,3.8433,3.8498,3.855,3.8602,3.865,3.8687,3.869,3.8744,3.8821,3.8867,3.8958,3.9031,3.9098,3.9124,3.91,3.91,3.9121,3.9123,3.9115,3.9117,3.8861,3.9094,3.9092,3.9091,3.909,3.9089,3.8518,3.858,3.8622,3.8694,3.8729,3.8773,3.8833,3.8852,3.8916,3.8988,3.8983,3.9068,3.9113,3.9199,3.923,3.9296,3.9267,3.9299,3.9306,3.9314,3.932,3.9106,3.9309,3.9308,3.9308,3.9307,3.9307,0,3.8721,3.8746,3.8811,3.8878,3.8933,3.8905,3.8956,3.9004,3.9079,3.9122,3.9179,3.9267,3.9337,3.9364,3.9432,3.948,3.947,3.9498,3.9493,3.9499,3.9344,3.9317,3.9504,3.9504,3.9504,3.9504,3.9504,3.9503,3.8833,3.8936,3.8941,3.906,3.9084,3.9166,3.9197,3.9237,3.9271,3.937,3.9427,3.9443,3.9479,3.9549,3.9612,3.9618,3.9643,3.9675,3.9676,3.953,3.951,3.9491,3.9466,3.9681,3.9681,3.9825,3.9826,3.9827]},{"header":{"parameterUnit":"m.s-1","parameterCategory":1,"la1":30.2991,"la2":30.254,"lo1":-89.0895,"lo2":-89.0444,"dy":0.0017,"dx":0.0017,"nx":28,"ny":28,"refTime":"2024-07-13T09:00:00:Z","depth":0,"parameterNumber":3,"parameterNumberName":"V-component_of_WINDS"},"data":[0,0,0,0,0,0,0,0,0,0,0,0,0,0,0,0,0,0,0,0,0,0,0,0,0,0,0,0,0,0,0,0,0,0,0,0,0,0,0,0,0,0,0,0,0,0,0,0,0,0,0,0,0,0,0,0,0,0,2.4468,2.4469,0,2.4546,2.4547,2.4548,2.4524,2.4523,2.4521,2.4519,2.4598,2.4602,2.4605,0,0,0,0,0,0,0,0,0,0,0,0,0,2.4295,2.4298,2.4468,2.4469,2.447,2.4546,2.4547,2.4548,2.4524,2.4522,2.4521,2.4519,2.4597,2.4601,2.4605,0,0,0,0,0,0,0,0,0,0,0,0,0,2.4371,2.4299,2.4468,2.4467,2.4468,2.4546,2.4547,2.4549,2.4525,2.4522,2.452,2.4518,2.4595,2.4601,2.4606,2.4689,0,0,2.4623,2.4625,0,0,0,0,0,0,0,0,2.4367,2.4378,2.4466,2.4467,2.4468,2.4523,2.4515,2.4596,2.4526,2.4503,2.4519,2.4516,2.4575,2.4582,2.4602,2.4693,2.4696,2.4623,2.4626,2.4629,2.463,0,0,0,0,0,0,0,2.4362,2.4374,2.4499,2.4468,2.4469,2.4462,2.447,2.453,2.4552,2.4505,2.4503,2.4513,2.4575,2.4597,2.4604,2.4697,2.4623,2.4628,2.4631,2.4633,2.4857,2.486,0,0,0,0,0,0,2.4356,2.437,2.4496,2.4501,2.4411,2.4467,2.4476,2.4508,2.4551,2.4555,2.4515,2.4512,2.4589,2.4597,2.4606,2.4705,2.4629,2.4634,2.4637,2.4854,2.4858,2.486,0,0,0,0,0,0,2.4352,2.4367,2.4493,2.4435,2.4451,2.4473,2.4509,2.4511,2.4533,2.4559,2.4562,2.4534,2.4587,2.4599,2.4668,2.4707,2.4636,2.4641,2.4851,2.4855,2.4859,2.4903,0,0,0,0,0,0,2.4347,2.4366,2.4399,2.4436,2.4454,2.4555,2.4511,2.4514,2.4542,2.4538,2.4577,2.4581,2.4586,2.466,2.4674,2.4713,2.4645,2.4848,2.4853,2.4858,2.4898,2.4908,2.4917,0,0,0,0,0,2.4341,2.4408,2.4401,2.4416,2.4495,2.4557,2.4567,2.4572,2.4546,2.4578,2.4594,2.458,2.4701,2.4667,2.4682,2.4724,2.4845,2.4852,2.4857,2.4894,2.4906,2.4916,0,0,0,0,0,0,2.4375,2.4413,2.4405,2.4487,2.4519,2.4553,2.4594,2.4585,2.4625,2.462,2.4624,2.4632,2.4703,2.4721,2.4683,2.4805,2.4769,2.4778,2.4792,2.4803,2.4812,2.4806,2.465,0,0,0,0,0,2.4392,2.444,2.447,2.4539,2.4556,2.4572,2.4599,2.46,2.4634,2.4647,2.4669,2.4701,2.4746,2.4776,2.4819,2.49,2.4907,2.4936,2.4946,2.4953,2.4961,2.5003,2.5016,2.488,2.488,2.488,0,0,2.4428,2.4454,2.4484,2.4547,2.4572,2.462,2.4584,2.4637,2.4673,2.4655,2.4722,2.4739,2.4775,2.485,2.4884,2.4867,2.5,2.4961,2.4966,2.497,2.5011,2.5024,2.5035,2.4884,2.4884,2.4883,0,0,2.4517,2.4542,2.4602,2.4627,2.4666,2.4676,2.469,2.4725,2.4736,2.4803,2.479,2.4832,2.491,2.4935,2.4959,2.5055,2.5043,2.5069,2.5117,2.5159,2.5169,2.5179,2.5212,2.5224,2.5077,2.5077,2.5077,0,2.4556,2.4629,2.4633,2.4687,2.4714,2.47,2.4759,2.4783,2.4834,2.4852,2.4832,2.4928,2.4951,2.5032,2.5055,2.5075,2.509,2.5065,2.5167,2.5177,2.5186,2.5217,2.523,2.508,2.508,2.5079,2.5079,0,2.4674,2.4725,2.4768,2.4817,2.4849,2.4905,2.4916,2.4948,2.4945,2.4957,2.5024,2.5052,2.5099,2.5118,2.5116,2.5198,2.5185,2.5166,2.513,2.5202,2.5231,2.5244,2.5084,2.5083,2.5082,2.5082,0,0,2.4788,2.4837,2.4853,2.4874,2.4914,2.4953,2.5008,2.5055,2.5081,2.5115,2.516,2.5226,2.5208,2.5234,2.5235,2.5271,2.5344,2.5247,2.5248,2.5263,2.5434,2.5447,2.5461,2.5336,2.5338,2.534,2.543,0,2.488,2.4977,2.4981,2.5069,2.5115,2.5101,2.5148,2.5177,2.519,2.5229,2.5242,2.5288,2.5262,2.5277,2.5313,2.5328,2.5378,2.5321,2.5377,2.5379,2.5368,2.5477,2.5492,2.5576,2.5442,2.5444,2.5445,0,2.5,2.5038,2.5131,2.5163,2.5182,2.5225,2.5267,2.5306,2.5338,2.5344,2.5372,2.5367,2.5421,2.5383,2.5457,2.5418,2.5441,2.5451,2.5454,2.5459,2.5416,2.5484,2.5602,2.5615,2.5464,2.5462,2.5461,0,2.5072,2.5147,2.5211,2.523,2.5269,2.5299,2.5317,2.5346,2.5374,2.541,2.5427,2.5469,2.5492,2.5524,2.553,2.5501,2.5603,2.5566,2.5609,2.5609,2.5631,2.5629,2.5754,2.5647,2.5647,2.5646,2.5646,0,2.5174,2.523,2.5244,2.5283,2.5346,2.5349,2.5411,2.5426,2.5452,2.5493,2.5484,2.5523,2.5528,2.5568,2.5573,2.5632,2.5643,2.5648,2.5649,2.5649,2.5648,2.5663,2.5657,2.565,2.5649,2.5648,2.5648,0,2.5265,2.5276,2.5345,2.5376,2.5386,2.543,2.5456,2.5493,2.5504,2.5556,2.5568,2.5585,2.5631,2.564,2.5694,2.5697,2.5768,2.5763,2.5757,2.5756,2.5798,2.5794,2.5937,2.5955,2.5837,2.5838,2.5839,0,2.5329,2.5372,2.5407,2.5434,2.5454,2.5498,2.5525,2.5529,2.5558,2.5597,2.5629,2.5674,2.571,2.5784,2.58,2.5841,2.5836,2.5883,2.5842,2.584,2.5835,2.5832,2.5836,2.5891,2.5892,2.5893,2.5894,0,2.544,2.5443,2.5483,2.5525,2.5558,2.5591,2.5622,2.5645,2.5653,2.5685,2.5732,2.576,2.5815,2.5859,2.59,2.5917,2.5907,2.5907,2.5919,2.5919,2.5913,2.5916,2.5778,2.5904,2.5903,2.5902,2.5901,2.5901,2.5519,2.5556,2.5586,2.5631,2.5654,2.5683,2.5719,2.5734,2.5774,2.5819,2.5819,2.587,2.5899,2.5952,2.5971,2.601,2.5995,2.6013,2.6017,2.6021,2.6025,2.5908,2.6018,2.6018,2.6017,2.6017,2.6017,0,2.5628,2.5647,2.5688,2.5732,2.5766,2.5754,2.5787,2.5817,2.5862,2.589,2.5925,2.5978,2.6021,2.604,2.6081,2.6108,2.6105,2.6119,2.6117,2.612,2.6037,2.6022,2.6121,2.6121,2.6121,2.6121,2.6121,2.6121,2.569,2.5751,2.5758,2.583,2.5848,2.5898,2.5918,2.5944,2.5967,2.6026,2.6062,2.6074,2.6098,2.614,2.6178,2.6182,2.6197,2.6214,2.6216,2.6137,2.6127,2.6116,2.6102,2.6217,2.6218,2.6296,2.6297,2.6298]}]]